Погода в Сейняйоки

Финляндия     62°47′53″N   22°52′16″E
темп.,
°C
ветер,
м/с
пор.,
м/с
влажн.,
%
обл.,
%
осадки,
мм/ч
давл.,
гПа
погр.,
м
13 мая, чт
чт1300:00+13ююв296861 0.0 1014170
03:00+13ююв21077100 0.0 1014189
06:00+13ююв310817 0.0 1013222
09:00+19ююв355925 0.0 1013432
12:00+23ююв464788 0.0 10121766
15:00+25ю353323 0.0 10112372
18:00+25юв343698 0.0 10102117
21:00+19ю1263100 0.0 101060
14 мая, пт
пт1400:00+15ююв277771 0.0 1011171
03:00+13ю22815 0.0 101040
06:00+12ююз118136 0.0 101018
09:00+17ссз005898 0.0 1009433
12:00+18сз125788 0.0 1008697
15:00+20ссз435398 0.1 10071094
18:00+18ссз565736 0.0 1007832
21:00+12ссз368587 0.1 1007348
15 мая, сб
сб1500:00+8ссз2490100 0.3 1007171
03:00+8ссз3591100 0.3 1006194
06:00+10ссз1396100 0.0 1005141
09:00+11ююв1296100 0.5 1005129
12:00+17юв356586 0.5 10051172
15:00+18юв346189 0.9 10051294
18:00+18ююв236492 1.0 1004853
21:00+14з0182100 1.6 100413
16 мая, вс
вс1600:00+13с1190100 0.0 100517
03:00+12в119598 0.2 100526
06:00+12ссз0196100 0.1 100528
09:00+13з1291100 0.1 1006249
12:00+14з117995 0.0 1007508
15:00+16з126968 0.1 1008812
18:00+15з336797 0.1 1008794
21:00+13сз1378100 0.1 1010149
17 мая, пн
пн1700:00+8зсз239712 0.0 101156
03:00+7зсз11987 0.0 101213
06:00+7всв01945 0.0 101243
09:00+14юв23725 0.0 1013513
12:00+19юв24485 0.0 10121506
15:00+22юв353713 0.0 10112327
18:00+21вюв3541100 0.0 10102188
21:00+17вюв375681 0.0 1010210